Temp
70 74 76 75 64 61 59 60 65 61 62 64 65 58 54 57 54 45 67 70 70 70 70 70 70 70 68 69 70 70 71 72 76 76 76 76 76 76 76 76 76 77 78 79 78 78 78 77 75
68 75 74 69 58 50 53 62 59 62 68 68 65 62 57 54 64 66 66 69 69 68 68 69 70 70 69 69 69 69 70 70 71 75 76 76 76 76 76 76 76 76 77 78 78 78 78 76 74
73 78 68 62 55 48 48 59 59 64 69 67 59 62 60 57 67 67 68 70 68 66 67 67 69 69 70 70 69 68 68 69 70 71 76 76 76 76 76 75 75 76 77 78 79 78 76 74 73
77 75 72 59 50 54 54 58 61 61 64 67 62 56 64 68 66 68 70 70 66 65 66 66 68 67 68 70 70 68 68 68 68 69 71 76 76 76 76 75 75 76 77 77 78 76 75 73 72
76 70 59 52 52 55 59 60 62 56 60 61 63 55 57 66 70 69 68 68 65 64 64 64 66 66 67 68 70 68 68 67 67 67 68 68 74 76 75 74 74 75 76 76 76 75 73 72 72
69 67 55 46 50 57 60 61 60 59 58 59 59 57 56 65 67 66 67 65 65 63 62 62 65 65 65 67 68 69 67 67 66 66 66 67 68 72 74 74 74 73 75 75 75 73 72 72 72
62 59 51 50 50 54 58 64 58 57 56 55 60 53 58 62 66 66 64 62 61 61 60 60 60 62 63 65 67 67 68 67 65 65 65 65 65 65 70 73 73 74 73 74 73 72 72 72 71
66 60 50 49 49 49 59 61 62 59 55 65 60 51 50 59 65 64 63 59 59 61 57 58 60 59 59 61 65 66 67 66 65 64 64 63 63 63 65 69 72 73 73 73 72 71 71 71 70
69 53 47 48 48 48 58 57 62 64 59 60 60 59 61 65 64 60 58 57 58 60 59 55 58 59 59 61 62 62 65 65 64 62 63 61 60 59 62 64 67 71 72 71 71 70 70 69 70
61 50 50 58 56 52 56 55 59 55 55 55 57 61 63 63 60 57 56 55 56 56 58 57 57 58 58 61 59 59 60 58 58 59 59 59 59 59 60 61 63 63 70 70 70 70 69 69 69
62 53 59 59 60 60 54 54 56 52 50 54 53 56 59 58 56 55 55 54 53 54 58 56 56 58 57 58 58 58 58 58 58 57 57 58 57 57 57 57 58 59 64 70 69 70 70 70 68
56 60 60 59 59 58 53 56 53 53 54 59 58 59 57 55 54 54 54 53 53 54 56 56 54 57 57 57 56 55 57 57 57 57 55 53 54 55 56 56 56 58 59 63 70 70 70 69 69
57 58 61 61 60 57 59 53 52 54 59 60 62 59 55 54 54 54 54 54 52 53 54 53 53 56 57 55 57 55 55 54 55 55 54 51 50 50 53 55 56 56 56 58 66 69 69 69 70
62 61 60 59 59 58 54 53 54 56 59 57 58 53 52 53 54 53 53 52 52 55 54 53 53 54 56 52 55 55 52 52 53 53 52 52 50 49 49 51 54 55 55 57 58 67 68 68 68
62 53 56 56 56 54 56 46 47 56 58 55 53 52 53 54 53 52 51 52 52 53 53 54 57 54 54 50 55 54 55 54 51 51 51 51 50 49 47 49 50 52 55 56 57 65 66 65 67
56 53 44 54 56 56 52 38 49 54 55 51 51 52 54 53 53 53 53 52 52 52 52 53 56 53 54 50 54 53 54 55 51 50 50 50 50 51 48 47 47 49 52 54 54 58 64 63 64
52 41 46 48 55 54 49 41 47 54 55 51 49 49 52 51 52 52 54 52 54 51 52 52 51 52 50 50 53 51 52 53 52 50 50 50 50 51 49 47 47 48 49 51 52 54 58 62 62
45 44 39 42 45 50 43 41 49 51 51 48 47 48 49 50 50 54 54 52 54 51 52 52 52 51 49 49 51 50 51 51 52 52 49 50 49 52 50 48 45 47 47 47 49 51 54 59 62
53 47 42 43 49 49 45 42 45 48 47 45 45 47 47 49 52 54 54 53 52 51 51 50 50 50 48 49 48 48 47 47 48 50 49 48 48 51 50 48 46 45 45 46 47 49 49 52 61
52 46 42 47 52 50 45 42 46 48 49 47 47 46 47 48 50 54 53 50 50 49 49 50 50 49 48 47 47 48 48 46 47 47 47 46 47 48 50 48 46 44 44 45 45 46 47 50 56
47 45 46 45 49 50 47 40 43 50 51 52 50 49 49 48 48 50 52 49 48 47 47 49 49 49 48 47 47 47 47 44 44 44 44 44 46 47 48 48 47 45 44 43 44 44 44 44 48
42 52 53 50 43 32 48 25 41 47 47 49 48 46 46 47 49 50 49 48 47 47 48 49 50 49 50 47 45 42 42 39 40 42 45 43 46 46 46 46 46 45 44 42 43 45 43 44 43
46 54 51 49 40 36 40 27 38 46 42 44 46 48 46 46 47 47 48 49 49 47 46 46 48 49 47 46 44 44 40 40 40 41 41 42 45 46 46 46 45 45 44 43 42 43 42 43 43
56 50 49 47 40 20 34 29 28 35 41 44 47 47 47 47 46 48 50 51 49 47 46 45 47 47 47 45 44 43 40 40 38 38 37 41 43 44 45 45 45 44 44 43 41 42 43 42 42
50 41 20 21 20 19 42 35 30 43 47 47 45 44 44 45 44 45 46 47 48 46 45 48 46 46 45 44 44 42 40 38 37 36 40 41 41 42 43 44 44 44 44 44 42 40 41 41 41
45 40 23 12 17 24 44 25 30 48 49 49 49 44 45 44 44 45 46 46 47 47 45 45 45 45 45 44 43 41 40 37 37 36 38 41 41 42 44 43 44 44 44 44 43 41 40 41 41
43 30 44 29 33 19 26 34 43 48 44 44 43 42 40 41 43 45 47 47 47 46 45 44 44 44 43 43 42 40 39 38 37 37 38 38 42 43 43 43 43 43 43 43 42 40 39 40 40
44 45 28 26 11 9 24 31 25 30 32 38 36 36 38 42 43 45 46 47 47 45 44 43 43 43 42 42 41 41 40 39 39 38 37 37 39 42 42 42 43 42 43 42 40 38 40 39 40
32 26 29 28 20 10 7 19 30 29 28 28 30 35 37 39 42 44 45 47 46 45 44 42 42 42 41 41 40 39 38 40 39 39 38 37 38 41 41 42 42 41 41 41 37 37 39 38 39
41 27 27 18 15 11 20 16 34 31 35 36 35 39 40 42 44 44 46 46 45 44 43 42 41 41 41 42 40 39 39 39 38 38 37 37 37 38 41 41 41 40 40 39 36 36 38 37 38
MSLP
1010.38 1009.89 1009.76 1009.55 1011.03 1012.77 1014.08 1015.32 1014.72 1015.10 1015.42 1017.62 1017.12 1017.86 1021.61 1022.91 1023.25 1024.67 1024.17 1024.04 1023.77 1023.65 1023.19 1022.63 1021.86 1021.12 1020.56 1019.86 1019.18 1018.51 1017.89 1017.36 1016.66 1016.33 1016.48 1016.52 1016.51 1016.53 1016.50 1016.56 1016.56 1016.54 1016.70 1016.77 1016.79 1016.83 1017.09 1017.32 1017.51
1010.68 1010.14 1009.85 1010.30 1012.34 1014.62 1016.48 1016.70 1016.55 1017.44 1017.61 1017.88 1018.86 1020.55 1021.71 1023.37 1024.01 1024.25 1024.24 1024.12 1023.96 1024.03 1023.55 1022.93 1022.16 1021.44 1020.81 1020.34 1019.75 1019.14 1018.50 1017.89 1017.29 1016.61 1016.32 1016.44 1016.48 1016.46 1016.36 1016.45 1016.44 1016.54 1016.71 1016.88 1017.00 1016.94 1017.04 1017.33 1017.56
1010.55 1010.36 1011.04 1011.60 1014.59 1016.87 1017.90 1018.35 1018.23 1018.20 1018.03 1018.07 1020.44 1021.89 1023.19 1024.91 1024.72 1024.52 1024.50 1024.20 1024.18 1024.25 1023.87 1023.37 1022.60 1021.98 1021.20 1020.49 1020.05 1019.55 1019.05 1018.48 1017.88 1017.20 1016.51 1016.33 1016.36 1016.41 1016.39 1016.40 1016.46 1016.46 1016.48 1016.72 1016.94 1017.12 1016.92 1017.30 1017.47
1010.26 1009.96 1010.86 1013.84 1017.03 1019.02 1019.48 1019.67 1019.23 1018.80 1019.00 1019.60 1021.04 1023.40 1025.29 1025.36 1025.09 1024.95 1024.63 1024.60 1024.61 1024.65 1024.28 1023.77 1023.03 1022.44 1021.73 1020.87 1020.43 1020.04 1019.39 1018.85 1018.36 1017.71 1017.09 1016.51 1016.36 1016.44 1016.27 1016.39 1016.38 1016.49 1016.41 1016.52 1016.73 1017.07 1017.11 1017.22 1017.41
1009.61 1010.36 1012.62 1016.45 1018.76 1020.04 1020.19 1020.47 1020.17 1020.42 1021.01 1021.47 1021.65 1024.70 1025.52 1025.66 1025.28 1025.29 1025.24 1025.10 1025.21 1025.15 1024.76 1024.28 1023.55 1022.88 1022.21 1021.53 1020.85 1020.47 1019.96 1019.36 1018.76 1018.32 1017.75 1017.18 1016.34 1016.23 1016.25 1016.19 1016.28 1016.20 1016.51 1016.49 1016.62 1016.69 1017.07 1017.18 1017.31
1010.34 1011.14 1014.37 1018.30 1019.92 1020.69 1020.98 1021.41 1021.45 1021.85 1022.71 1022.92 1023.29 1024.50 1025.92 1026.09 1025.73 1025.70 1025.57 1025.69 1025.75 1025.59 1025.24 1024.85 1024.21 1023.51 1022.68 1021.82 1021.27 1020.70 1020.36 1019.96 1019.48 1018.88 1018.42 1017.64 1016.92 1016.30 1016.14 1016.16 1016.19 1016.36 1016.37 1016.30 1016.50 1016.52 1016.88 1017.00 1017.00
1011.86 1013.62 1016.93 1019.24 1020.80 1021.24 1021.87 1022.05 1022.31 1022.81 1023.17 1023.95 1024.13 1025.50 1026.70 1026.49 1026.23 1026.08 1026.07 1026.17 1026.24 1025.99 1025.69 1025.29 1024.77 1024.21 1023.43 1022.55 1021.75 1021.04 1020.44 1020.39 1020.04 1019.35 1018.87 1018.31 1017.48 1017.05 1016.60 1015.93 1015.87 1015.97 1016.17 1016.20 1016.27 1016.36 1016.36 1016.70 1016.67
1012.62 1014.51 1018.13 1020.02 1021.76 1022.64 1022.57 1022.69 1022.90 1023.10 1024.46 1024.79 1024.95 1026.33 1026.99 1027.05 1026.70 1026.61 1026.50 1026.67 1026.57 1026.28 1026.17 1025.75 1025.18 1024.66 1023.96 1023.23 1022.51 1021.73 1020.99 1020.73 1020.33 1019.67 1019.33 1018.82 1018.13 1017.48 1017.05 1016.66 1015.67 1015.58 1015.67 1015.86 1016.16 1016.10 1016.02 1016.34 1016.46
1013.27 1016.58 1019.53 1021.13 1022.22 1023.93 1023.59 1023.64 1023.99 1024.73 1024.99 1025.64 1026.41 1026.96 1027.38 1027.28 1027.10 1027.06 1027.01 1026.95 1026.82 1026.61 1026.36 1026.24 1025.72 1025.10 1024.51 1023.76 1023.16 1022.41 1021.74 1021.01 1020.64 1020.25 1019.49 1019.59 1018.91 1017.97 1017.78 1017.47 1016.50 1015.37 1015.37 1015.42 1015.70 1015.89 1015.70 1015.99 1016.36
1014.90 1018.18 1020.55 1021.79 1022.99 1023.98 1024.50 1024.57 1024.85 1025.48 1026.00 1026.61 1027.08 1027.44 1027.62 1027.68 1027.66 1027.70 1027.59 1027.56 1027.35 1027.13 1026.66 1026.40 1026.13 1025.69 1025.03 1024.25 1023.75 1023.04 1022.49 1021.77 1021.17 1020.79 1019.14 1020.53 1019.78 1018.42 1018.50 1018.17 1017.27 1016.49 1015.25 1015.05 1015.12 1015.37 1015.57 1015.72 1016.40
1017.69 1019.84 1021.39 1022.50 1023.49 1024.23 1025.03 1025.44 1025.95 1025.97 1026.62 1027.22 1027.71 1027.96 1028.07 1028.23 1028.33 1028.35 1028.19 1028.02 1027.93 1027.70 1027.20 1026.83 1026.59 1026.10 1025.47 1024.82 1024.23 1023.64 1023.01 1022.33 1021.42 1020.71 1020.52 1020.84 1020.03 1018.52 1018.92 1018.30 1018.05 1017.15 1016.13 1014.98 1015.18 1015.13 1015.29 1015.33 1016.03
1019.55 1021.32 1022.03 1023.40 1024.01 1024.55 1025.42 1026.02 1026.28 1026.63 1027.31 1027.48 1027.84 1028.06 1028.42 1028.63 1028.77 1028.82 1028.72 1028.39 1028.20 1027.96 1027.65 1027.16 1026.86 1026.43 1025.79 1025.29 1024.72 1024.10 1023.70 1023.01 1022.57 1022.32 1022.47 1021.70 1020.62 1018.68 1019.54 1019.00 1018.77 1017.98 1016.59 1016.07 1014.70 1014.85 1014.63 1015.21 1015.53
1020.57 1021.91 1022.70 1023.62 1024.42 1025.06 1025.89 1026.44 1026.88 1027.25 1027.48 1027.62 1027.97 1028.37 1028.72 1028.96 1029.06 1028.92 1028.75 1028.62 1028.51 1028.30 1027.92 1027.54 1027.19 1026.73 1026.15 1025.68 1025.12 1024.50 1023.94 1023.53 1023.20 1022.88 1022.73 1022.41 1021.94 1021.54 1021.15 1019.22 1019.25 1018.40 1017.44 1017.10 1015.02 1014.16 1014.28 1014.85 1015.14
1021.38 1022.15 1023.04 1023.66 1024.55 1025.37 1025.97 1027.04 1027.05 1027.74 1027.75 1028.09 1028.34 1028.71 1028.87 1029.05 1029.16 1029.18 1029.02 1028.93 1028.81 1028.43 1028.03 1027.74 1027.50 1027.09 1026.49 1026.08 1025.56 1024.97 1024.39 1023.83 1023.35 1023.06 1022.91 1022.60 1022.37 1022.14 1021.51 1020.54 1019.22 1018.30 1018.13 1017.24 1015.99 1014.20 1013.81 1014.32 1014.87
1021.37 1022.41 1023.40 1023.97 1024.49 1025.81 1025.91 1027.63 1027.95 1028.01 1027.98 1028.44 1028.63 1028.82 1028.99 1029.09 1029.09 1029.27 1029.29 1029.11 1029.09 1028.71 1028.41 1027.97 1027.43 1027.34 1026.89 1026.59 1025.92 1025.35 1024.66 1024.24 1023.62 1023.42 1023.23 1023.20 1022.76 1022.50 1021.96 1021.06 1020.16 1019.18 1018.30 1017.52 1015.55 1014.10 1013.80 1014.12 1014.82
1021.90 1022.51 1023.85 1024.32 1024.39 1025.42 1026.19 1028.37 1028.46 1028.30 1028.56 1028.93 1029.05 1029.12 1029.35 1029.45 1029.43 1029.23 1029.15 1029.17 1028.97 1028.88 1028.56 1028.29 1027.90 1027.57 1027.21 1027.15 1026.25 1025.85 1025.13 1024.49 1024.05 1023.70 1023.76 1023.56 1023.14 1022.81 1022.22 1021.42 1020.77 1019.86 1018.52 1016.88 1015.06 1014.81 1013.95 1014.69 1015.02
1021.95 1023.05 1024.15 1024.86 1024.93 1025.62 1026.52 1028.61 1028.67 1028.53 1028.89 1029.30 1029.43 1029.57 1029.57 1029.70 1029.56 1029.26 1029.16 1028.96 1028.69 1028.84 1028.67 1028.43 1028.20 1027.81 1027.61 1027.41 1026.74 1026.25 1025.65 1025.00 1024.47 1024.18 1024.10 1023.81 1023.29 1022.87 1022.49 1021.92 1021.19 1020.44 1019.44 1017.90 1016.71 1016.11 1015.56 1014.56 1014.60
1021.81 1023.60 1024.63 1025.10 1026.09 1026.37 1027.70 1028.66 1028.88 1028.98 1029.21 1029.60 1029.75 1029.87 1029.79 1029.74 1029.64 1029.27 1029.14 1029.02 1028.78 1028.82 1028.70 1028.65 1028.38 1027.98 1027.85 1027.57 1027.09 1026.63 1026.06 1025.53 1025.04 1024.82 1024.72 1024.16 1023.69 1022.87 1022.58 1022.17 1021.76 1020.83 1019.91 1019.24 1018.22 1016.58 1016.15 1015.14 1014.44
1022.00 1023.44 1024.65 1025.52 1025.83 1026.61 1027.78 1028.64 1028.91 1029.04 1029.41 1029.66 1029.78 1029.91 1029.99 1029.88 1029.65 1029.33 1029.24 1029.20 1029.08 1029.01 1028.97 1028.80 1028.47 1028.23 1028.15 1027.83 1027.37 1026.94 1026.45 1026.12 1025.71 1025.33 1025.18 1024.77 1024.15 1023.26 1022.63 1022.39 1021.91 1021.30 1020.62 1019.94 1019.05 1017.93 1016.97 1015.86 1015.00
1022.60 1023.79 1025.12 1025.85 1026.05 1026.60 1027.59 1028.54 1028.75 1028.83 1028.96 1029.29 1029.65 1029.87 1030.13 1029.96 1029.90 1029.76 1029.47 1029.61 1029.50 1029.43 1029.15 1028.92 1028.70 1028.50 1028.39 1028.11 1027.69 1027.36 1026.86 1026.58 1026.40 1026.05 1025.58 1025.48 1024.74 1023.89 1022.85 1022.35 1022.08 1021.80 1021.01 1020.24 1019.85 1019.03 1017.51 1017.08 1015.40
1023.80 1024.38 1025.11 1025.91 1026.44 1026.71 1027.58 1028.70 1028.81 1028.64 1028.67 1029.20 1029.64 1029.75 1030.01 1030.06 1030.16 1030.03 1029.86 1029.86 1029.52 1029.54 1029.29 1028.94 1028.75 1028.43 1028.22 1027.99 1027.59 1027.22 1026.89 1026.61 1026.43 1026.06 1025.85 1025.82 1025.20 1024.33 1023.48 1022.88 1022.30 1021.97 1021.47 1020.77 1020.19 1019.89 1019.35 1018.17 1017.13
1024.44 1024.73 1025.36 1026.15 1027.13 1027.60 1027.84 1029.25 1029.09 1028.72 1029.10 1029.36 1029.82 1030.01 1030.41 1030.33 1030.45 1030.29 1030.17 1029.99 1029.60 1029.47 1029.05 1028.90 1028.80 1028.51 1028.16 1027.98 1027.71 1027.52 1027.33 1027.21 1027.04 1026.70 1026.07 1025.93 1025.40 1024.79 1024.14 1023.43 1022.72 1022.14 1021.79 1021.23 1020.65 1020.00 1019.76 1018.89 1018.10
1025.04 1025.40 1026.01 1026.79 1027.72 1028.68 1029.03 1029.71 1029.44 1029.00 1029.43 1029.81 1030.15 1030.43 1030.70 1030.70 1030.68 1030.60 1030.40 1030.01 1029.56 1029.28 1029.06 1028.91 1028.70 1028.48 1028.38 1028.11 1027.87 1027.70 1027.75 1027.62 1027.50 1027.14 1026.66 1026.07 1025.44 1024.95 1024.34 1023.68 1022.92 1022.26 1021.82 1021.35 1020.99 1020.27 1019.95 1019.53 1018.99
1025.20 1026.07 1027.08 1027.84 1028.82 1030.23 1030.06 1030.40 1030.05 1029.58 1029.70 1030.01 1030.22 1030.81 1031.05 1031.07 1030.97 1030.77 1030.40 1029.91 1029.58 1029.23 1029.09 1028.93 1028.70 1028.61 1028.54 1028.37 1028.06 1027.78 1028.12 1028.00 1027.82 1027.43 1026.86 1026.19 1025.53 1024.87 1024.28 1023.81 1023.07 1022.45 1021.89 1021.47 1021.16 1020.62 1019.97 1019.45 1018.73
1025.88 1027.34 1029.29 1030.53 1031.29 1031.27 1030.40 1030.43 1029.92 1029.66 1029.77 1030.24 1030.67 1031.32 1031.45 1031.43 1031.46 1031.07 1030.58 1030.07 1029.49 1029.27 1029.28 1028.90 1028.85 1028.90 1028.74 1028.56 1028.23 1028.31 1028.33 1028.25 1028.19 1027.77 1026.98 1026.32 1025.62 1024.98 1024.28 1023.75 1023.12 1022.42 1021.85 1021.35 1021.01 1020.60 1019.97 1019.41 1018.92
1026.76 1027.95 1029.90 1032.20 1032.99 1032.46 1030.96 1030.83 1029.98 1029.72 1029.96 1030.45 1031.19 1031.69 1031.75 1031.84 1031.60 1031.14 1030.48 1030.01 1029.44 1029.36 1029.44 1029.28 1029.22 1029.19 1028.95 1028.77 1028.48 1028.48 1028.34 1028.19 1027.90 1027.57 1027.09 1026.46 1025.76 1024.98 1024.12 1023.62 1023.02 1022.39 1021.79 1021.10 1020.68 1020.35 1019.82 1019.24 1018.51
1027.68 1028.85 1030.42 1032.54 1033.73 1034.25 1032.70 1031.61 1030.63 1030.34 1030.93 1031.46 1032.03 1032.24 1032.46 1032.12 1031.67 1031.02 1030.32 1029.81 1029.54 1029.56 1029.61 1029.59 1029.50 1029.38 1029.17 1028.93 1028.62 1028.68 1028.30 1027.94 1027.62 1027.37 1027.00 1026.61 1025.62 1024.82 1024.23 1023.62 1022.97 1022.37 1021.86 1021.25 1020.74 1020.16 1019.52 1018.86 1018.28
1028.65 1029.98 1031.96 1034.08 1036.03 1036.29 1034.45 1033.09 1032.10 1031.91 1032.35 1032.55 1032.87 1033.00 1032.63 1031.91 1031.41 1030.78 1030.25 1029.80 1029.67 1029.73 1029.76 1029.63 1029.57 1029.55 1029.36 1029.01 1029.03 1028.82 1028.31 1027.84 1027.37 1026.97 1026.78 1026.49 1025.79 1024.92 1024.32 1023.59 1023.02 1022.48 1021.87 1021.47 1021.10 1020.20 1019.46 1018.85 1018.13
1030.14 1032.15 1034.20 1035.84 1037.49 1037.72 1037.37 1034.68 1033.07 1032.96 1033.28 1033.46 1033.20 1032.94 1032.48 1031.60 1030.94 1030.44 1030.27 1029.77 1029.71 1029.84 1029.90 1029.90 1029.81 1029.69 1029.49 1029.18 1029.24 1028.76 1028.30 1027.76 1027.19 1026.86 1027.00 1026.64 1026.04 1025.21 1024.51 1023.79 1023.20 1022.68 1022.13 1021.74 1021.37 1020.42 1019.39 1018.54 1017.74
1030.36 1032.74 1034.61 1036.69 1038.37 1038.74 1038.11 1035.20 1033.61 1033.29 1033.20 1033.12 1033.14 1032.38 1031.51 1030.83 1030.34 1030.19 1030.00 1029.88 1029.90 1030.04 1030.02 1030.21 1029.98 1029.80 1029.52 1029.39 1029.23 1028.79 1028.26 1027.77 1027.62 1027.52 1027.25 1026.79 1026.24 1025.53 1024.80 1024.17 1023.50 1022.81 1022.27 1022.08 1021.56 1020.65 1019.65 1018.63 1017.58
Wind_Speed
17 11 5 4 6 8 15 13 20 27 10 18 20 25 24 15 8 6 5 7 12 15 13 18 26 28 29 29 28 27 27 26 15 2 1 1 3 4 5 5 5 6 5 5 5 6 5 9 11
9 10 2 1 6 6 8 13 21 20 14 14 18 14 14 13 13 2 4 11 13 14 13 17 27 28 27 27 28 27 27 26 24 12 4 3 4 6 6 6 6 5 5 6 6 6 7 9 10
11 7 3 4 7 6 6 16 12 15 23 15 9 14 10 9 11 6 6 12 12 13 14 18 26 28 27 25 26 28 27 26 27 23 9 6 7 7 7 7 6 6 7 8 8 7 8 10 10
5 4 5 9 14 13 14 12 16 10 13 16 13 14 11 10 7 7 11 14 12 13 14 20 26 29 28 27 26 26 27 27 26 27 28 9 8 9 9 9 8 7 8 9 10 8 9 10 10
2 1 6 7 21 11 16 17 17 23 8 16 9 13 10 11 10 11 12 14 16 14 14 17 27 29 28 27 27 22 24 26 27 26 27 27 10 10 10 10 10 9 8 9 10 11 9 11 11
5 3 9 9 14 11 14 17 20 18 20 18 19 11 11 7 14 8 12 13 15 14 13 16 25 29 28 25 27 24 21 24 27 28 28 26 23 12 10 10 10 8 9 10 10 11 11 12 12
5 6 10 11 9 13 10 14 20 19 19 20 9 11 4 13 13 9 9 10 10 10 11 14 17 22 26 25 25 25 24 22 23 26 28 27 24 25 15 11 11 10 10 10 10 10 12 12 13
4 7 5 6 6 8 9 20 15 17 20 8 5 8 8 8 12 9 9 8 8 11 8 13 17 17 16 15 26 27 24 23 24 23 27 25 23 25 24 20 12 12 11 10 10 11 12 14 13
4 8 6 4 5 5 15 19 22 19 19 17 13 10 8 11 10 9 7 8 9 12 13 7 15 17 15 16 16 20 22 22 21 16 23 19 11 14 19 23 21 12 12 12 11 11 13 13 13
7 6 6 9 15 16 19 19 15 11 16 13 11 11 11 10 11 9 11 10 12 13 14 10 13 16 14 12 14 13 14 11 10 6 12 9 10 13 16 19 23 25 12 13 13 13 12 10 5
10 13 13 15 18 17 14 20 10 9 13 8 9 8 9 10 8 9 8 6 8 8 12 10 10 14 14 12 9 7 9 10 10 9 8 9 10 10 9 9 10 10 18 5 7 7 6 9 5
24 19 18 18 17 13 19 12 12 11 8 9 9 8 8 9 8 8 9 8 7 8 11 10 8 13 14 8 8 6 8 9 10 11 18 12 9 13 9 8 10 10 8 13 7 5 7 7 8
20 15 18 19 18 15 15 14 9 10 9 10 9 9 9 9 9 8 8 8 7 8 8 9 8 12 13 9 10 8 7 6 9 10 13 11 11 11 12 9 9 9 10 10 9 7 7 7 8
12 16 13 11 15 17 18 13 8 7 9 9 9 8 8 9 8 7 8 9 8 8 8 8 8 10 12 7 13 9 5 5 5 7 9 13 11 10 10 8 11 9 9 10 11 5 6 7 7
17 16 9 6 7 13 20 12 10 6 8 8 8 7 7 8 9 7 6 8 7 5 7 9 12 10 13 8 13 8 8 8 5 4 7 12 12 13 12 10 10 11 11 14 11 6 1 2 4
7 7 6 6 7 4 11 5 5 6 8 7 8 7 8 6 7 7 7 6 7 6 8 8 8 10 12 8 11 7 8 10 5 4 6 10 13 16 12 10 10 12 11 9 10 13 2 2 1
6 6 15 5 7 5 9 6 3 5 8 7 7 7 8 8 8 6 7 6 7 6 7 7 8 10 9 8 10 8 10 10 8 5 8 11 12 14 13 10 10 12 11 12 12 9 11 4 3
3 10 8 6 4 15 11 7 5 6 9 7 7 7 7 7 5 5 6 6 7 6 7 7 7 8 7 6 7 6 9 8 9 9 9 13 11 15 14 11 12 12 10 10 12 13 11 9 3
13 16 11 5 1 9 9 8 8 6 7 6 6 6 6 6 5 7 7 7 8 7 8 7 8 8 5 6 9 9 10 5 8 9 13 16 12 15 14 12 13 12 11 12 12 11 12 10 5
10 16 8 5 0 4 9 8 7 7 5 7 6 6 7 7 8 7 8 7 7 6 7 7 7 8 5 4 4 6 8 3 6 8 9 13 15 15 12 12 14 13 11 11 12 13 10 6 9
9 6 5 7 3 3 5 4 6 5 4 6 6 6 7 7 7 7 8 7 7 6 5 6 6 6 5 6 3 5 6 3 6 9 7 10 14 14 15 14 12 12 11 11 11 11 12 9 10
4 6 8 7 5 2 5 2 4 5 7 7 7 8 7 8 7 7 7 7 6 3 4 5 5 6 6 6 5 6 6 4 4 6 8 9 14 14 14 14 13 10 9 11 11 9 10 8 10
4 4 5 4 5 6 6 6 5 6 5 6 7 7 7 8 7 8 8 7 6 4 3 3 5 6 6 6 6 6 5 3 3 6 10 10 12 13 11 15 13 11 8 10 12 11 9 8 7
6 4 1 3 3 3 5 6 7 3 4 4 5 6 7 8 8 8 7 8 7 5 4 4 6 5 6 6 7 8 7 8 7 8 7 10 10 10 12 13 13 10 9 10 10 12 10 10 9
1 5 4 6 5 6 8 4 8 6 7 5 5 7 7 8 7 8 9 8 8 5 4 4 6 6 7 7 7 9 7 7 7 8 9 11 10 10 9 11 12 9 10 10 10 11 12 10 9
3 5 6 6 2 4 3 4 6 7 8 8 7 6 8 8 7 9 10 8 8 5 5 6 7 7 7 7 7 5 5 2 2 4 6 6 7 8 11 10 11 10 11 10 12 9 10 11 9
4 4 2 4 4 5 4 4 2 8 7 7 7 7 8 8 8 10 10 8 7 6 5 6 7 6 7 7 6 4 2 3 4 6 5 5 8 9 11 11 12 12 11 11 12 10 13 11 11
4 2 4 3 2 3 6 4 6 2 1 5 6 6 8 9 9 10 9 6 5 5 5 7 6 6 6 7 6 6 7 6 6 5 6 6 8 10 12 12 11 12 11 10 12 12 13 13 9
5 4 6 5 3 6 2 8 5 5 4 5 7 8 10 10 10 10 7 5 6 6 7 6 7 7 7 7 5 6 7 9 8 5 5 6 8 11 12 12 12 11 11 9 12 14 15 14 13
6 6 5 6 6 3 4 10 4 4 6 6 8 9 9 9 11 7 4 6 7 7 6 6 6 6 6 6 4 6 7 7 8 7 6 7 9 10 11 12 10 11 12 10 12 14 15 14 14
Wind_Direction
314 322 303 358 53 68 48 39 62 33 69 66 63 81 93 62 19 77 285 14 22 15 1 4 5 8 7 7 5 4 4 2 341 196 287 265 144 128 124 126 121 123 126 140 146 146 165 131 123
310 318 25 354 79 72 46 50 57 49 36 98 61 72 55 63 36 11 41 31 32 17 3 1 4 6 10 8 6 5 3 2 358 332 197 217 197 180 170 170 161 159 158 160 173 170 161 141 130
301 186 66 97 57 4 97 28 39 60 39 46 100 57 52 349 8 356 40 41 34 20 10 2 6 5 6 10 9 7 4 3 1 354 303 219 205 195 189 187 188 191 180 174 181 178 146 148 150
309 360 5 77 91 44 75 40 35 47 38 35 124 71 74 38 354 9 34 41 38 18 12 6 8 6 6 2 11 7 6 6 4 2 1 279 222 216 198 198 199 211 197 181 185 171 162 159 168
221 7 71 90 68 64 61 53 56 54 66 31 87 86 75 24 357 54 45 40 37 20 15 10 8 6 4 5 4 11 10 8 8 5 360 359 300 227 215 202 209 198 208 189 192 171 177 169 184
2 87 81 78 71 74 56 66 59 62 45 32 86 88 60 14 16 37 51 48 42 23 18 14 10 7 3 2 4 7 8 11 8 6 0 358 352 301 227 212 211 215 204 199 194 180 176 183 192
49 60 82 107 89 61 59 74 70 67 56 33 49 62 34 29 14 29 44 49 48 28 22 18 12 7 1 357 3 5 5 11 12 9 4 359 360 0 315 224 214 209 208 200 197 184 173 196 196
51 80 52 39 74 61 87 74 74 64 48 75 52 48 22 20 15 26 29 43 42 31 22 22 14 8 3 6 2 360 4 7 5 10 5 1 3 0 346 328 222 211 199 196 202 189 186 200 201
25 57 68 82 69 87 41 81 75 69 75 63 62 66 51 43 20 24 22 27 37 31 22 21 16 8 5 7 358 354 1 2 357 3 11 354 3 1 350 337 337 217 203 198 193 200 192 202 205
77 79 61 104 102 83 63 51 74 74 63 59 61 51 49 41 27 23 23 25 29 28 18 21 20 10 359 4 360 1 359 347 339 339 19 353 354 12 356 340 343 353 230 205 190 192 210 188 212
22 87 88 88 101 92 86 74 61 74 58 61 71 58 51 43 33 25 19 25 32 23 17 10 21 14 3 359 358 360 2 356 347 351 354 356 351 8 0 349 337 339 334 214 206 192 205 191 190
77 79 86 89 83 90 80 75 67 83 97 80 82 73 63 48 33 28 17 16 30 27 13 2 16 13 4 354 352 351 4 4 2 6 23 8 356 16 343 354 340 326 334 314 194 198 194 208 197
94 96 92 92 84 92 92 80 76 61 81 79 72 72 68 59 40 14 19 10 33 31 10 358 12 12 360 354 358 343 360 5 3 17 19 15 7 1 344 355 326 338 341 309 290 193 194 207 205
130 110 109 112 112 100 87 64 76 56 77 74 74 73 75 81 66 27 15 7 20 22 20 0 12 2 354 352 359 346 337 344 1 24 18 20 11 360 349 339 331 339 336 314 309 246 186 205 208
122 119 119 137 137 123 105 58 60 30 80 84 77 68 76 86 64 50 36 24 25 6 15 7 17 3 352 356 357 347 343 348 352 25 25 20 15 3 348 346 341 343 325 320 317 285 294 249 217
144 107 96 358 126 46 85 87 49 67 65 71 77 62 58 55 69 52 51 39 19 24 19 11 13 3 356 6 351 350 351 342 327 26 40 22 17 7 354 348 347 341 333 351 330 344 326 300 295
208 117 121 86 73 71 81 111 83 77 62 45 54 56 49 35 35 38 46 45 13 34 21 18 11 2 0 2 352 343 344 343 337 22 27 11 10 8 1 355 345 343 341 343 357 331 318 231 228
226 104 75 92 36 95 95 122 111 63 78 52 48 50 44 39 18 36 38 34 11 39 26 28 13 0 9 359 2 350 346 345 12 1 19 16 359 358 359 1 349 346 345 346 340 346 330 309 211
97 99 105 100 356 96 124 131 141 117 95 85 67 50 38 38 13 26 16 23 14 31 28 25 16 1 20 2 5 355 342 352 11 3 20 5 348 354 356 359 354 346 344 347 346 339 337 316 314
60 104 103 84 319 137 141 156 152 142 163 143 108 61 54 31 20 12 10 18 23 35 30 21 15 4 15 6 359 351 336 3 2 3 13 357 352 345 349 356 354 348 342 345 353 348 347 304 351
35 75 122 129 200 66 154 151 152 184 153 111 78 71 48 49 24 8 14 9 25 31 28 31 13 360 25 2 353 350 339 354 358 360 3 357 351 343 348 357 350 351 347 343 345 351 346 328 322
67 332 98 131 151 186 64 251 156 146 101 74 53 51 41 35 20 8 13 2 2 348 28 37 9 7 22 1 11 355 350 4 355 342 350 351 350 351 351 349 340 348 347 343 336 345 336 330 323
141 217 125 208 103 73 344 77 270 86 54 44 37 49 40 29 30 8 1 350 327 348 11 43 16 20 18 8 15 360 14 3 351 7 352 341 348 349 344 348 337 338 347 341 336 331 337 327 312
167 115 223 331 97 42 223 127 277 154 135 51 31 44 40 27 14 3 341 326 313 341 16 38 24 16 21 10 8 358 37 20 16 354 347 346 344 345 349 343 343 335 340 339 338 331 322 322 310
254 104 0 5 11 218 201 173 231 126 101 88 44 43 29 19 4 346 319 315 312 340 37 31 24 22 18 12 1 45 44 31 5 340 344 345 343 340 339 341 338 337 332 333 333 335 329 321 316
168 130 147 187 224 279 152 234 245 134 99 67 51 47 24 352 339 318 302 304 313 350 56 36 29 25 18 10 2 74 57 45 322 298 325 333 335 333 327 331 332 326 328 332 341 333 331 325 311
346 72 74 92 334 52 237 339 345 130 68 46 36 22 339 316 311 300 300 307 336 31 52 52 39 25 17 360 3 32 340 304 294 301 299 313 327 328 331 327 331 332 332 339 344 333 330 325 322
79 44 69 357 95 286 290 232 226 95 3 18 333 323 297 288 289 289 299 318 28 50 55 49 39 30 14 351 24 7 333 305 289 280 300 320 317 336 335 337 335 333 338 351 346 333 329 325 323
9 34 48 93 119 164 255 271 209 181 176 240 270 271 264 268 268 274 286 26 48 49 48 42 32 22 10 351 44 359 337 329 322 290 347 336 332 339 345 340 343 337 339 2 345 332 334 325 327
120 150 132 122 263 228 142 273 200 178 208 216 262 255 259 250 264 262 40 49 45 45 37 36 21 20 359 9 15 347 330 321 343 18 5 350 346 343 345 338 350 342 346 355 346 334 334 326 328